Location: Geroldsau
(48.7259°N, 8.2466°E)
Time: 04:49:59
(UTC+00:00)

FALCON 9 DEB - Visible Passes

Search period start: 26 October 2021 00:00
Search period end: 05 November 2021 00:00
Orbit: 348 x 357 km, 53.0° (Epoch: 25 October)

Date Brightness Start Highest point End Pass type
(mag) Time Alt. Az. Time Alt. Az. Time Alt. Az.
26 Oct 4.3 17:25:32 10° SSW 17:27:51 21° SE 17:28:34 19° ESE visible
26 Oct 6.1 18:59:53 10° WSW 19:00:10 12° WSW 19:00:10 12° WSW visible
27 Oct 2.8 17:51:09 10° SW 17:54:02 55° SSE 17:54:12 54° SE visible
28 Oct 4.3 16:42:57 10° SSW 16:45:21 23° SE 16:47:47 10° E visible
28 Oct 3.8 18:17:25 10° WSW 18:19:41 46° W 18:19:41 46° W visible
29 Oct 2.9 17:08:31 10° SW 17:11:25 60° SSE 17:13:27 18° ENE visible
29 Oct 5.6 18:43:56 10° W 18:45:01 19° WNW 18:45:01 19° WNW visible
30 Oct 3.0 17:34:41 10° WSW 17:37:37 61° NNW 17:38:40 34° NE visible
31 Oct 3.7 18:01:04 10° W 18:03:47 38° NNW 18:03:47 38° NNW visible
01 Nov 3.1 16:51:42 10° W 16:54:36 58° NNW 16:57:14 12° ENE visible
01 Nov 5.1 18:27:23 10° WNW 18:28:47 22° NW 18:28:47 22° NW visible
02 Nov 3.7 17:17:55 10° W 17:20:42 37° N 17:22:09 22° NE visible
02 Nov 6.2 18:53:29 10° WNW 18:53:43 12° WNW 18:53:43 12° WNW visible
03 Nov 3.8 17:44:06 10° WNW 17:46:50 33° N 17:47:01 33° N visible
04 Nov 3.7 16:34:31 10° WNW 16:37:17 36° N 16:40:04 10° ENE visible
04 Nov 4.5 18:10:03 10° WNW 18:11:49 28° NW 18:11:49 28° NW visible
